| time (UTC) | temp F | wind direction | speed knots | gust knots | rain 1hr in | rain 24hr in | rain mn in | humidity % | barometer mb |
| 20260505121531 | 62 | 24 | 0.0 | 2.6 | 0.00 | 0.00 | 0.00 | 60 | 1010.6 |
| 20260505120035 | 61 | 142 | 0.0 | 2.6 | 0.00 | 0.00 | 0.00 | 60 | 1010.5 |
| 20260505114528 | 59 | 269 | 0.0 | 1.7 | 0.00 | 0.00 | 0.00 | 59 | 1010.6 |
| 20260505113031 | 59 | 142 | 0.0 | 1.7 | 0.00 | 0.00 | 0.00 | 59 | 1010.5 |
| 20260505111525 | 58 | 349 | 0.0 | 2.6 | 0.00 | 0.00 | 0.00 | 57 | 1010.4 |
| 20260505101525 | 56 | 27 | 0.0 | 0.0 | 0.00 | 0.00 | 0.00 | 59 | 1010.0 |
| 20260505100018 | 56 | 29 | 0.0 | 0.0 | 0.00 | 0.00 | 0.00 | 62 | 1009.7 |
| 20260505094524 | 57 | 29 | 0.0 | 0.9 | 0.00 | 0.00 | 0.00 | 64 | 1009.7 |
| 20260505093012 | 57 | 46 | 0.0 | 0.9 | 0.00 | 0.00 | 0.00 | 64 | 1009.5 |
| 20260505091512 | 57 | 343 | 0.0 | 0.9 | 0.00 | 0.00 | 0.00 | 65 | 1009.5 |
| 20260505090010 | 57 | 77 | 0.0 | 1.7 | 0.00 | 0.00 | 0.00 | 66 | 1009.5 |
| 20260505084509 | 58 | 297 | 0.0 | 0.0 | 0.00 | 0.00 | 0.00 | 67 | 1009.3 |
| 20260505083008 | 59 | 12 | 0.0 | 0.0 | 0.00 | 0.00 | 0.00 | 66 | 1009.6 |
| 20260505081507 | 60 | 288 | 0.0 | 0.9 | 0.00 | 0.00 | 0.00 | 66 | 1009.6 |
| 20260505080007 | 60 | 294 | 0.0 | 0.0 | 0.00 | 0.00 | 0.00 | 65 | 1009.4 |
| 20260505074506 | 61 | 107 | 0.0 | 0.9 | 0.00 | 0.00 | 0.00 | 65 | 1009.5 |
| 20260505073005 | 61 | 152 | 0.0 | 0.0 | 0.00 | 0.00 | 0.00 | 64 | 1009.4 |
| 20260505071504 | 61 | 63 | 0.0 | 0.9 | 0.00 | 0.00 | 0.00 | 63 | 1009.4 |
| 20260505070005 | 61 | 31 | 0.0 | 0.9 | 0.00 | 0.00 | 0.00 | 63 | 1009.6 |
| 20260505064505 | 61 | 112 | 0.0 | 0.9 | 0.00 | 0.00 | 0.00 | 63 | 1009.5 |
| 20260505063002 | 61 | 86 | 0.0 | 1.7 | 0.00 | 0.00 | 0.00 | 63 | 1009.6 |
| 20260505061501 | 61 | 8 | 0.0 | 2.6 | 0.00 | 0.00 | 0.00 | 63 | 1009.6 |
| 20260505060100 | 60 | 87 | 0.0 | 2.6 | 0.00 | 0.00 | 0.00 | 64 | 1009.5 |
| 20260505054609 | 59 | 325 | 0.0 | 2.6 | 0.00 | 0.00 | 0.00 | 64 | 1009.4 |
| 20260505053101 | 58 | 51 | 0.0 | 0.9 | 0.00 | 0.00 | 0.00 | 66 | 1009.4 |
| 20260505051553 | 59 | 3 | 0.0 | 0.9 | 0.00 | 0.00 | 0.00 | 65 | 1009.6 |
| 20260505041555 | 60 | 264 | 0.0 | 0.9 | 0.00 | 0.00 | 0.00 | 61 | 1009.5 |
| 20260505040051 | 60 | 320 | 0.0 | 0.9 | 0.00 | 0.00 | 0.00 | 60 | 1009.3 |
| 20260505034540 | 60 | 298 | 0.0 | 1.7 | 0.00 | 0.00 | 0.00 | 60 | 1009.2 |
| 20260505033036 | 60 | 277 | 0.0 | 2.6 | 0.00 | 0.00 | 0.00 | 59 | 1009.3 |
| 20260505031540 | 59 | 264 | 0.0 | 1.7 | 0.00 | 0.00 | 0.00 | 61 | 1009.3 |
| 20260505030029 | 59 | 18 | 0.0 | 0.9 | 0.00 | 0.00 | 0.00 | 61 | 1009.3 |
| 20260505024524 | 59 | 293 | 0.0 | 0.9 | 0.00 | 0.00 | 0.00 | 60 | 1009.3 |
| 20260505023020 | 59 | 239 | 0.0 | 0.9 | 0.00 | 0.00 | 0.00 | 61 | 1009.6 |
| 20260505021516 | 59 | 49 | 0.0 | 0.9 | 0.00 | 0.00 | 0.00 | 61 | 1009.7 |
| 20260505020011 | 58 | 98 | 0.0 | 0.0 | 0.00 | 0.00 | 0.00 | 62 | 1009.6 |
| 20260505014507 | 58 | 135 | 0.0 | 0.0 | 0.00 | 0.00 | 0.00 | 62 | 1009.5 |
| 20260505013003 | 59 | 135 | 0.0 | 0.0 | 0.00 | 0.00 | 0.00 | 59 | 1009.6 |
| 20260505011607 | 60 | 135 | 0.0 | 0.0 | 0.00 | 0.00 | 0.00 | 59 | 1009.5 |
| 20260505010055 | 61 | 135 | 0.0 | 0.0 | 0.00 | 0.00 | 0.00 | 57 | 1009.2 |
| 20260505004550 | 62 | 135 | 0.0 | 0.0 | 0.00 | 0.00 | 0.00 | 54 | 1009.1 |
| 20260505003045 | 64 | 135 | 0.0 | 0.0 | 0.00 | 0.00 | 0.00 | 51 | 1009.0 |
| 20260505001541 | 65 | 135 | 0.0 | 0.0 | 0.00 | 0.00 | 0.00 | 49 | 1008.9 |
| 20260505000048 | 66 | 135 | 0.0 | 0.0 | 0.00 | 0.00 | 0.00 | 47 | 1008.7 |
| 20260504234535 | 68 | 137 | 0.0 | 0.9 | 0.00 | 0.00 | 0.00 | 44 | 1008.8 |
| 20260504233027 | 69 | 316 | 0.0 | 2.6 | 0.00 | 0.00 | 0.00 | 42 | 1008.7 |
| 20260504231522 | 71 | 352 | 0.0 | 1.7 | 0.00 | 0.00 | 0.00 | 40 | 1008.7 |
| 20260504230018 | 72 | 223 | 0.0 | 2.6 | 0.00 | 0.00 | 0.00 | 38 | 1008.6 |
| 20260504224519 | 73 | 253 | 0.9 | 3.5 | 0.00 | 0.00 | 0.00 | 38 | 1008.5 |
| 20260504223027 | 74 | 200 | 0.9 | 3.5 | 0.00 | 0.00 | 0.00 | 37 | 1008.7 |
| 20260504221513 | 76 | 268 | 0.9 | 4.3 | 0.00 | 0.00 | 0.00 | 36 | 1008.7 |
| 20260504220015 | 76 | 286 | 0.9 | 2.6 | 0.00 | 0.00 | 0.00 | 34 | 1008.7 |
| 20260504214507 | 75 | 256 | 0.0 | 5.2 | 0.00 | 0.00 | 0.00 | 35 | 1008.8 |
| 20260504213003 | 76 | 288 | 1.7 | 5.2 | 0.00 | 0.00 | 0.00 | 34 | 1008.9 |
| 20260504211600 | 75 | 160 | 0.9 | 3.5 | 0.00 | 0.00 | 0.00 | 36 | 1008.9 |
| 20260504210058 | 75 | 250 | 0.9 | 5.2 | 0.00 | 0.00 | 0.00 | 36 | 1008.9 |
| 20260504204549 | 74 | 117 | 0.9 | 7.0 | 0.00 | 0.00 | 0.00 | 36 | 1009.0 |
| 20260504203059 | 75 | 82 | 1.7 | 5.2 | 0.00 | 0.00 | 0.00 | 36 | 1009.0 |
| 20260504201539 | 74 | 285 | 0.9 | 7.0 | 0.00 | 0.00 | 0.00 | 37 | 1009.0 |
| 20260504200034 | 75 | 217 | 1.7 | 6.1 | 0.00 | 0.00 | 0.00 | 35 | 1009.2 |
| 20260504194529 | 75 | 82 | 0.9 | 3.5 | 0.00 | 0.00 | 0.00 | 35 | 1009.3 |
| 20260504193026 | 75 | 243 | 1.7 | 6.1 | 0.00 | 0.00 | 0.00 | 36 | 1009.4 |
| 20260504191521 | 74 | 84 | 1.7 | 4.3 | 0.00 | 0.00 | 0.00 | 35 | 1009.6 |
| 20260504190016 | 75 | 299 | 0.9 | 5.2 | 0.00 | 0.00 | 0.00 | 35 | 1009.9 |
| 20260504184511 | 73 | 174 | 1.7 | 13.9 | 0.00 | 0.00 | 0.00 | 36 | 1010.1 |
| 20260504183008 | 73 | 102 | 1.7 | 6.1 | 0.00 | 0.00 | 0.00 | 37 | 1010.3 |
| 20260504181511 | 72 | 280 | 1.7 | 7.0 | 0.00 | 0.00 | 0.00 | 36 | 1010.4 |
| 20260504180058 | 73 | 317 | 0.9 | 6.1 | 0.00 | 0.00 | 0.00 | 36 | 1010.6 |
| 20260504174602 | 72 | 304 | 0.9 | 6.1 | 0.00 | 0.00 | 0.00 | 36 | 1010.7 |
| 20260504173048 | 72 | 153 | 1.7 | 6.1 | 0.00 | 0.00 | 0.00 | 36 | 1011.0 |
| 20260504171548 | 71 | 266 | 2.6 | 7.8 | 0.00 | 0.00 | 0.00 | 36 | 1011.2 |